Regional Weather Roundup
Issued by NWS

Home | Current Version | Previous Version | Graphics & Text | Print | Product List | Glossary On
Versions: 1 2 3 4 5 6 7 8 9 10 11 12 13 14 15 16 17 18 19 20 21 22 23 24 25 26 27 28 29 30 31 32 33 34 35 36 37 38 39 40 41 42 43 44 45 46 47 48 49 50
201
ASUS43 KBIS 281010
RWRND

NORTH DAKOTA REGIONAL WEATHER ROUNDUP
NATIONAL WEATHER SERVICE BISMARCK ND
500 AM CDT SUN MAY 28 2017

NOTE: "FAIR" INDICATES FEW OR NO CLOUDS BELOW 12,000 FEET WITH NO
SIGNIFICANT WEATHER AND/OR OBSTRUCTIONS TO VISIBILITY.


NDZ001>003-009>011-017-281100-
NORTHWEST NORTH DAKOTA

CITY           SKY/WX    TMP DP  RH WIND       PRES   REMARKS
WILLISTON      FAIR      48  35  60 N7        29.96S
MINOT          FAIR      52  43  71 W15       29.87R
MINOT AFB      PTCLDY    50  44  79 NW14      29.86R
$$

NDZ018>021-031>035-040>046-281100-
SOUTHWEST NORTH DAKOTA

CITY           SKY/WX    TMP DP  RH WIND       PRES   REMARKS
BISMARCK       FAIR      47  42  83 W8        29.88R
DICKINSON      FAIR      40  36  86 W10       29.95R
GARRISON         N/A     46  41  82 NW14      29.88S
HETTINGER ARPT CLEAR     43  37  79 NW5       29.98R
$$

NDZ004>008-012>016-024-026-027-054-281100-
NORTHEAST NORTH DAKOTA

CITY           SKY/WX    TMP DP  RH WIND       PRES   REMARKS
GRAND FORKS    PTCLDY    51  47  86 NW9       29.73S
GRND FRKS AFB  PTCLDY    50  46  85 NW9       29.74S
DEVILS LAKE    CLOUDY    52  48  86 NW12      29.79S
$$

NDZ022-023-025-028>030-036>039-047>053-281100-
SOUTHEAST NORTH DAKOTA

CITY           SKY/WX    TMP DP  RH WIND       PRES   REMARKS
FARGO          CLOUDY    52  49  89 W8        29.76S
JAMESTOWN      CLOUDY    52  44  74 W8        29.80S
$$





USA.gov is the U.S. government's official web portal to all federal, state and local government web resources and services.